Weather History for Pagosa Springs, CO

Change the Weather History Date:

Wednesday, January 25, 2012

  Actual Average (KDRO) Record (KDRO)
Temperature  
Mean Temperature 31 °F 24 °F  
Max Temperature 38 °F 38 °F 54 °F (1970)
Min Temperature 23 °F 10 °F -7 °F (1988)
Degree Days  
Heating Degree Days 34 41  
Month to date heating degree days 1042  
Since 1 July heating degree days 3916  
Cooling Degree Days 0 0  
Month to date cooling degree days 0  
Year to date cooling degree days 0  
Moisture  
Dew Point 25 °F    
Average Humidity 73    
Maximum Humidity 96    
Minimum Humidity 59    
Precipitation  
Precipitation 0.00 in 0.03 in 0.38 in (1989)
Month to date precipitation 0.92  
Year to date precipitation 0.92  
Sea Level Pressure  
Sea Level Pressure 30.21 in    
Wind  
Wind Speed 1 mph (SSW)    
Max Wind Speed 10 mph    
Max Gust Speed -    
Visibility 9 miles    
Events Fog , Thunderstorm    
T = Trace of Precipitation, MM = Missing Value Source: NWS Daily Summary

Daily Weather History Graph

Daily Weather History Graph

Search for Another Location

Airport:

Trip Planner

Search our weather history database for the weather conditions in past years. The results will help you decide how hot, cold, wet, or windy it might be!

Date:

Astronomy

Jan. 25, 2012 Rise Set
Actual Time 7:16 AM MST 5:24 PM MST
Civil Twilight 6:48 AM MST 5:52 PM MST
Nautical Twilight 6:17 AM MST 6:24 PM MST
Astronomical Twilight 5:46 AM MST 6:55 PM MST
Moon 8:21 AM MST (1/25) 8:15 PM MST (1/25)
Length of Visible Light 11h 03m
Length of Day
10h 07m
Waxing Crescent, 7% of the Moon is Illuminated
Jan 25
Waxing Crescent
Jan 30
First Quarter
Feb 7
Full
Feb 14
Last Quarter
Feb 21
New

Hourly Weather History & Observations

Time (MST) Temp. Windchill Dew Point Humidity Pressure Visibility Wind Dir Wind Speed Gust Speed Precip Events Conditions
12:15 AM - - - N/A% 30.19 in 0.2 mi Calm Calm - N/A Fog Fog
12:35 AM - - - N/A% 30.19 in 1.8 mi East 3.5 mph - N/A   Mostly Cloudy
12:55 AM - - - N/A% 30.19 in 0.8 mi Calm Calm - N/A   Overcast
1:15 AM - - - N/A% 30.19 in 0.2 mi WNW 3.5 mph - N/A Fog Fog
1:35 AM - - - N/A% 30.19 in 0.2 mi Calm Calm - N/A Fog Fog
1:55 AM - - - N/A% 30.21 in 0.5 mi Calm Calm - N/A Fog Fog
2:15 AM - - - N/A% 30.22 in 0.5 mi Calm Calm - N/A Fog Fog
2:35 AM - - - N/A% 30.23 in 10.0 mi Calm Calm - N/A   Clear
2:55 AM - - - N/A% 30.22 in 10.0 mi Calm Calm - N/A   Clear
3:15 AM - - - N/A% 30.22 in 10.0 mi Calm Calm - N/A   Clear
3:35 AM - - - N/A% 30.22 in 10.0 mi Calm Calm - N/A   Clear
4:15 AM - - - N/A% 30.20 in 10.0 mi Calm Calm - N/A   Clear
4:35 AM - - - N/A% 30.21 in 10.0 mi Calm Calm - N/A   Clear
4:55 AM - - - N/A% 30.22 in 10.0 mi Calm Calm - N/A   Clear
5:15 AM - - - N/A% 30.22 in 10.0 mi Calm Calm - N/A   Clear
5:35 AM - - - N/A% 30.22 in 10.0 mi Calm Calm - N/A   Clear
6:15 AM - - - N/A% 30.22 in 10.0 mi Calm Calm - N/A   Clear
6:35 AM - - - N/A% 30.23 in 10.0 mi Calm Calm - N/A   Clear
6:55 AM - - - N/A% 30.22 in 10.0 mi Calm Calm - N/A   Clear
7:15 AM - - - N/A% 30.22 in 10.0 mi Calm Calm - N/A   Clear
7:35 AM - - - N/A% 30.21 in 10.0 mi Calm Calm - N/A   Clear
7:55 AM - - - N/A% 30.21 in 10.0 mi Calm Calm - N/A   Clear
8:15 AM - - - N/A% 30.21 in 10.0 mi Calm Calm - N/A   Clear
8:55 AM - - - N/A% 30.20 in 10.0 mi Calm Calm - N/A   Clear
9:15 AM - - - N/A% 30.20 in 10.0 mi Calm Calm - N/A   Clear
9:35 AM - - - N/A% 30.21 in 10.0 mi Calm Calm - N/A   Clear
9:55 AM - - - N/A% 30.22 in 10.0 mi Calm Calm - N/A   Clear
10:15 AM - - - N/A% 30.21 in 10.0 mi Calm Calm - N/A   Clear
10:35 AM - - - N/A% 30.21 in 10.0 mi Calm Calm - N/A   Clear
10:55 AM - - - N/A% 30.19 in 10.0 mi South 3.5 mph - N/A   Clear
11:15 AM - - - N/A% 30.19 in 10.0 mi Calm Calm - N/A   Clear
11:35 AM - - - N/A% 30.17 in 10.0 mi SW 3.5 mph - N/A   Clear
12:55 PM 35.2 °F 29.5 °F 22.1 °F 59% 30.15 in 10.0 mi SSW 6.9 mph - N/A   Clear
1:15 PM 36.0 °F 28.5 °F 25.3 °F 65% 30.15 in 10.0 mi SSW 10.4 mph - N/A   Clear
1:35 PM 36.7 °F 30.5 °F 25.0 °F 63% 30.16 in 10.0 mi South 8.1 mph - N/A   Clear
2:15 PM 37.8 °F 32.5 °F 25.5 °F 61% 30.16 in 10.0 mi South 6.9 mph - N/A   Clear
2:35 PM 38.3 °F 33.9 °F 25.5 °F 60% 30.17 in 10.0 mi SSE 5.8 mph - N/A   Clear
2:55 PM 38.3 °F 33.9 °F 25.9 °F 61% 30.18 in 10.0 mi SSE 5.8 mph - N/A   Clear
3:15 PM 38.3 °F 35.9 °F 26.2 °F 62% 30.20 in 10.0 mi SSW 3.5 mph - N/A   Clear
3:35 PM 37.6 °F 35.1 °F 25.5 °F 62% 30.20 in 10.0 mi SSW 3.5 mph - N/A Thunderstorm Clear
3:55 PM 36.9 °F 33.1 °F 25.3 °F 63% 30.19 in 10.0 mi SW 4.6 mph - N/A   Clear
4:15 PM 35.6 °F 32.8 °F 25.5 °F 67% 30.20 in 10.0 mi SSW 3.5 mph - N/A   Clear
4:35 PM 36.0 °F 32.1 °F 25.3 °F 65% 30.20 in 10.0 mi SSW 4.6 mph - N/A   Clear
4:55 PM 35.6 °F 30.7 °F 25.0 °F 65% 30.21 in 10.0 mi South 5.8 mph - N/A   Clear
5:15 PM 32.5 °F 29.3 °F 24.6 °F 73% 30.21 in 10.0 mi SSW 3.5 mph - N/A   Clear
5:35 PM 29.3 °F - 23.5 °F 79% 30.22 in 10.0 mi Calm Calm - N/A   Clear
5:55 PM 27.0 °F - 22.1 °F 82% 30.22 in 10.0 mi Calm Calm - N/A   Clear
6:15 PM 27.1 °F - 24.6 °F 90% 30.23 in 10.0 mi Calm Calm - N/A   Clear
6:35 PM 24.6 °F - 22.8 °F 93% 30.24 in 10.0 mi Calm Calm - N/A Thunderstorm Clear
6:55 PM 26.1 °F - 24.8 °F 95% 30.24 in 10.0 mi Calm Calm - N/A   Clear
7:15 PM 24.3 °F - 23.0 °F 95% 30.24 in 10.0 mi Calm Calm - N/A   Clear
7:35 PM 23.5 °F - 22.6 °F 96% 30.24 in 3.0 mi Calm Calm - N/A   Clear
7:55 PM 19.2 °F - 17.8 °F 94% 30.24 in 1.0 mi Calm Calm - N/A   Mist
8:15 PM 22.1 °F - 21.0 °F 96% 30.24 in 0.5 mi Calm Calm - N/A Fog Light Freezing Fog
8:35 PM 21.0 °F - 19.9 °F 96% 30.24 in 1.2 mi Calm Calm - N/A   Mist
9:15 PM 20.1 °F - 19.0 °F 96% 30.23 in 10.0 mi Calm Calm - N/A   Clear
9:35 PM - - - N/A% 30.23 in 7.0 mi Calm Calm - N/A   Clear
9:55 PM - - - N/A% 30.24 in 2.5 mi Calm Calm - N/A   Clear
10:15 PM - - - N/A% 30.24 in 4.0 mi Calm Calm - N/A   Haze
10:35 PM - - - N/A% 30.23 in 4.0 mi Calm Calm - N/A   Haze
10:55 PM - - - N/A% 30.23 in 10.0 mi Calm Calm - N/A   Clear
11:15 PM - - - N/A% 30.23 in 4.0 mi Calm Calm - N/A   Haze
11:35 PM - - - N/A% 30.23 in 7.0 mi Calm Calm - N/A   Clear
11:55 PM - - - N/A% 30.23 in 10.0 mi Calm Calm - N/A   Clear